| time (UTC) | temp F | wind direction | speed MPH | gust MPH | rain 1hr in | rain 24hr in | rain mn in | humidity % | barometer mb |
| 20260509150816 | 61 | 261 | 2.0 | 6.0 | 0.00 | 0.00 | 0.00 | 72 | 1011.3 |
| 20260509150333 | 61 | 243 | 1.0 | 7.0 | 0.00 | 0.00 | 0.00 | 73 | 1011.4 |
| 20260509145829 | 60 | 235 | 1.0 | 4.0 | 0.00 | 0.00 | 0.00 | 74 | 1011.5 |
| 20260509145326 | 60 | 159 | 0.0 | 5.0 | 0.00 | 0.00 | 0.00 | 74 | 1011.5 |
| 20260509144821 | 60 | 13 | 1.0 | 2.0 | 0.00 | 0.00 | 0.00 | 75 | 1011.5 |
| 20260509144316 | 60 | 9 | 0.0 | 2.0 | 0.00 | 0.00 | 0.00 | 76 | 1011.2 |
| 20260509143813 | 59 | 145 | 0.0 | 2.0 | 0.00 | 0.00 | 0.00 | 75 | 1011.3 |
| 20260509143314 | 60 | 54 | 0.0 | 2.0 | 0.00 | 0.00 | 0.00 | 75 | 1011.4 |
| 20260509142850 | 60 | 126 | 0.0 | 3.0 | 0.00 | 0.00 | 0.00 | 76 | 1011.5 |
| 20260509142348 | 60 | 60 | 0.0 | 3.0 | 0.00 | 0.00 | 0.00 | 75 | 1011.3 |
| 20260509141823 | 60 | 241 | 0.0 | 5.0 | 0.00 | 0.00 | 0.00 | 75 | 1011.1 |
| 20260509141317 | 59 | 153 | 1.0 | 5.0 | 0.00 | 0.00 | 0.00 | 77 | 1011.1 |
| 20260509140814 | 59 | 37 | 2.0 | 3.0 | 0.00 | 0.00 | 0.00 | 77 | 1011.2 |
| 20260509140311 | 59 | 5 | 0.0 | 2.0 | 0.00 | 0.00 | 0.00 | 78 | 1011.2 |
| 20260509135827 | 58 | 77 | 0.0 | 1.0 | 0.00 | 0.00 | 0.00 | 78 | 1011.2 |
| 20260509135323 | 57 | 288 | 0.0 | 0.0 | 0.00 | 0.00 | 0.00 | 80 | 1011.2 |
| 20260509134823 | 56 | 285 | 0.0 | 2.0 | 0.00 | 0.00 | 0.00 | 82 | 1011.3 |
| 20260509134319 | 55 | 50 | 0.0 | 2.0 | 0.00 | 0.00 | 0.00 | 82 | 1011.3 |
| 20260509133816 | 54 | 52 | 0.0 | 1.0 | 0.00 | 0.00 | 0.00 | 83 | 1011.4 |
| 20260509133313 | 54 | 57 | 0.0 | 0.0 | 0.00 | 0.00 | 0.00 | 83 | 1011.4 |
| 20260509132829 | 54 | 57 | 0.0 | 0.0 | 0.00 | 0.00 | 0.00 | 83 | 1011.5 |
| 20260509132326 | 54 | 94 | 0.0 | 1.0 | 0.00 | 0.00 | 0.00 | 84 | 1011.4 |
| 20260509131842 | 53 | 94 | 0.0 | 1.0 | 0.00 | 0.00 | 0.00 | 84 | 1011.4 |
| 20260509131320 | 53 | 102 | 0.0 | 1.0 | 0.00 | 0.00 | 0.00 | 84 | 1011.8 |
| 20260509130817 | 53 | 102 | 0.0 | 0.0 | 0.00 | 0.00 | 0.00 | 84 | 1011.8 |
| 20260509130314 | 53 | 94 | 0.0 | 0.0 | 0.00 | 0.00 | 0.00 | 84 | 1011.8 |
| 20260509125830 | 53 | 95 | 0.0 | 0.0 | 0.00 | 0.01 | 0.00 | 84 | 1011.9 |
| 20260509125328 | 53 | 95 | 0.0 | 0.0 | 0.00 | 0.01 | 0.00 | 84 | 1011.9 |
| 20260509124824 | 52 | 95 | 0.0 | 0.0 | 0.00 | 0.01 | 0.00 | 84 | 1012.0 |
| 20260509124320 | 52 | 67 | 0.0 | 0.0 | 0.00 | 0.01 | 0.00 | 84 | 1011.7 |
| 20260509123837 | 52 | 67 | 0.0 | 0.0 | 0.00 | 0.01 | 0.00 | 84 | 1012.0 |
| 20260509123316 | 52 | 67 | 0.0 | 2.0 | 0.00 | 0.01 | 0.00 | 85 | 1012.0 |
| 20260509122811 | 52 | 79 | 0.0 | 2.0 | 0.00 | 0.01 | 0.00 | 85 | 1012.0 |
| 20260509122327 | 52 | 219 | 0.0 | 0.0 | 0.00 | 0.01 | 0.00 | 85 | 1011.7 |
| 20260509121824 | 52 | 219 | 0.0 | 0.0 | 0.00 | 0.01 | 0.00 | 85 | 1011.7 |
| 20260509121319 | 52 | 219 | 0.0 | 0.0 | 0.00 | 0.01 | 0.00 | 85 | 1011.9 |
| 20260509120816 | 52 | 219 | 0.0 | 0.0 | 0.00 | 0.01 | 0.00 | 85 | 1011.9 |
| 20260509120333 | 52 | 219 | 0.0 | 0.0 | 0.00 | 0.01 | 0.00 | 85 | 1012.1 |
| 20260509115848 | 52 | 219 | 0.0 | 0.0 | 0.00 | 0.01 | 0.00 | 85 | 1012.0 |
| 20260509115327 | 52 | 219 | 0.0 | 0.0 | 0.00 | 0.01 | 0.00 | 85 | 1011.8 |
| 20260509114843 | 51 | 219 | 0.0 | 0.0 | 0.00 | 0.01 | 0.00 | 85 | 1011.7 |
| 20260509114318 | 51 | 219 | 0.0 | 0.0 | 0.00 | 0.01 | 0.00 | 85 | 1011.8 |
| 20260509113815 | 51 | 219 | 0.0 | 0.0 | 0.00 | 0.01 | 0.00 | 85 | 1011.8 |
| 20260509113348 | 51 | 219 | 0.0 | 3.0 | 0.00 | 0.01 | 0.00 | 85 | 1011.9 |
| 20260509112824 | 51 | 219 | 1.0 | 3.0 | 0.00 | 0.01 | 0.00 | 86 | 1011.9 |
| 20260509112321 | 51 | 278 | 0.0 | 0.0 | 0.00 | 0.01 | 0.00 | 86 | 1010.9 |
| 20260509111817 | 51 | 327 | 0.0 | 0.0 | 0.00 | 0.01 | 0.00 | 86 | 1011.4 |
| 20260509111317 | 51 | 327 | 0.0 | 0.0 | 0.00 | 0.01 | 0.00 | 87 | 1011.9 |
| 20260509110814 | 51 | 327 | 0.0 | 0.0 | 0.00 | 0.01 | 0.00 | 88 | 1012.0 |
| 20260509110330 | 51 | 327 | 0.0 | 0.0 | 0.00 | 0.01 | 0.00 | 89 | 1012.0 |
| 20260509105826 | 51 | 327 | 0.0 | 0.0 | 0.00 | 0.01 | 0.00 | 89 | 1012.0 |
| 20260509105322 | 50 | 327 | 0.0 | 0.0 | 0.00 | 0.01 | 0.00 | 89 | 1012.2 |
| 20260509104819 | 50 | 327 | 0.0 | 0.0 | 0.00 | 0.01 | 0.00 | 89 | 1012.1 |
| 20260509104315 | 50 | 327 | 0.0 | 0.0 | 0.00 | 0.01 | 0.00 | 89 | 1012.1 |
| 20260509103815 | 50 | 327 | 0.0 | 0.0 | 0.00 | 0.01 | 0.00 | 89 | 1011.9 |
| 20260509103311 | 50 | 327 | 0.0 | 0.0 | 0.00 | 0.01 | 0.00 | 90 | 1011.8 |
| 20260509102827 | 50 | 327 | 0.0 | 0.0 | 0.00 | 0.01 | 0.00 | 90 | 1011.9 |
| 20260509102323 | 50 | 327 | 0.0 | 0.0 | 0.00 | 0.01 | 0.00 | 89 | 1011.5 |
| 20260509101820 | 50 | 327 | 0.0 | 0.0 | 0.00 | 0.01 | 0.00 | 89 | 1011.5 |
| 20260509101315 | 50 | 333 | 0.0 | 0.0 | 0.00 | 0.01 | 0.00 | 90 | 1011.5 |
| 20260509100831 | 50 | 333 | 0.0 | 0.0 | 0.00 | 0.01 | 0.00 | 89 | 1011.3 |
| 20260509100311 | 50 | 333 | 0.0 | 0.0 | 0.00 | 0.01 | 0.00 | 89 | 1011.5 |
| 20260509095827 | 50 | 333 | 0.0 | 0.0 | 0.00 | 0.01 | 0.00 | 89 | 1011.5 |
| 20260509095323 | 50 | 333 | 0.0 | 0.0 | 0.00 | 0.01 | 0.00 | 89 | 1011.6 |
| 20260509094820 | 50 | 333 | 0.0 | 0.0 | 0.00 | 0.01 | 0.00 | 89 | 1011.4 |
| 20260509094316 | 50 | 333 | 0.0 | 0.0 | 0.00 | 0.01 | 0.00 | 89 | 1011.3 |
| 20260509093812 | 50 | 333 | 0.0 | 0.0 | 0.00 | 0.01 | 0.00 | 89 | 1011.3 |
| 20260509093329 | 50 | 333 | 0.0 | 0.0 | 0.00 | 0.01 | 0.00 | 89 | 1011.5 |
| 20260509092825 | 50 | 333 | 0.0 | 0.0 | 0.00 | 0.01 | 0.00 | 89 | 1011.6 |
| 20260509092326 | 50 | 333 | 0.0 | 1.0 | 0.00 | 0.01 | 0.00 | 89 | 1011.7 |
| 20260509091823 | 50 | 333 | 0.0 | 1.0 | 0.00 | 0.01 | 0.00 | 89 | 1011.8 |
| 20260509091319 | 50 | 333 | 0.0 | 0.0 | 0.00 | 0.01 | 0.00 | 89 | 1011.7 |
| 20260509090815 | 50 | 333 | 0.0 | 0.0 | 0.00 | 0.01 | 0.00 | 89 | 1011.7 |
| 20260509090312 | 50 | 333 | 0.0 | 0.0 | 0.00 | 0.01 | 0.00 | 89 | 1011.7 |
| 20260509085828 | 50 | 333 | 0.0 | 0.0 | 0.00 | 0.01 | 0.00 | 89 | 1011.7 |
| 20260509085325 | 50 | 333 | 0.0 | 0.0 | 0.00 | 0.01 | 0.00 | 89 | 1011.6 |
| 20260509084826 | 50 | 333 | 0.0 | 0.0 | 0.00 | 0.01 | 0.00 | 89 | 1011.6 |
| 20260509084322 | 50 | 333 | 0.0 | 1.0 | 0.00 | 0.01 | 0.00 | 89 | 1011.7 |
| 20260509083818 | 50 | 333 | 0.0 | 1.0 | 0.00 | 0.01 | 0.00 | 89 | 1011.7 |
| 20260509083315 | 50 | 333 | 0.0 | 2.0 | 0.00 | 0.01 | 0.00 | 89 | 1011.7 |
| 20260509082812 | 50 | 333 | 1.0 | 2.0 | 0.00 | 0.01 | 0.00 | 89 | 1011.9 |
| 20260509082329 | 50 | 346 | 1.0 | 2.0 | 0.00 | 0.01 | 0.00 | 89 | 1011.9 |
| 20260509081826 | 50 | 346 | 0.0 | 1.0 | 0.00 | 0.01 | 0.00 | 89 | 1011.8 |
| 20260509081326 | 50 | 346 | 0.0 | 1.0 | 0.00 | 0.01 | 0.00 | 88 | 1012.0 |
| 20260509080822 | 50 | 346 | 0.0 | 0.0 | 0.00 | 0.01 | 0.00 | 89 | 1012.0 |
| 20260509080319 | 50 | 346 | 0.0 | 0.0 | 0.00 | 0.01 | 0.00 | 89 | 1011.7 |
| 20260509075814 | 51 | 346 | 0.0 | 0.0 | 0.00 | 0.03 | 0.00 | 88 | 1011.8 |
| 20260509075311 | 51 | 346 | 0.0 | 1.0 | 0.00 | 0.03 | 0.00 | 89 | 1011.8 |
| 20260509074828 | 51 | 346 | 0.0 | 0.0 | 0.00 | 0.03 | 0.00 | 89 | 1011.9 |
| 20260509074324 | 50 | 346 | 0.0 | 0.0 | 0.00 | 0.03 | 0.00 | 89 | 1012.0 |
| 20260509073824 | 50 | 346 | 0.0 | 0.0 | 0.00 | 0.03 | 0.00 | 88 | 1012.0 |
| 20260509073321 | 50 | 346 | 0.0 | 0.0 | 0.00 | 0.03 | 0.00 | 88 | 1012.0 |
| 20260509072816 | 50 | 346 | 0.0 | 0.0 | 0.00 | 0.03 | 0.00 | 88 | 1012.0 |
| 20260509072313 | 50 | 346 | 0.0 | 0.0 | 0.00 | 0.03 | 0.00 | 88 | 1011.9 |
| 20260509071828 | 50 | 346 | 0.0 | 0.0 | 0.00 | 0.03 | 0.00 | 88 | 1012.0 |
| 20260509071324 | 50 | 346 | 0.0 | 0.0 | 0.00 | 0.03 | 0.00 | 88 | 1011.8 |
| 20260509070820 | 50 | 346 | 0.0 | 2.0 | 0.00 | 0.03 | 0.00 | 88 | 1011.7 |
| 20260509070320 | 50 | 346 | 0.0 | 2.0 | 0.00 | 0.03 | 0.00 | 88 | 1011.7 |
| 20260509065817 | 50 | 346 | 1.0 | 2.0 | 0.00 | 0.03 | 0.00 | 88 | 1011.7 |
| 20260509065313 | 50 | 355 | 0.0 | 2.0 | 0.00 | 0.03 | 0.00 | 88 | 1011.7 |
| 20260509064830 | 50 | 355 | 0.0 | 2.0 | 0.00 | 0.03 | 0.00 | 88 | 1011.7 |
| 20260509064327 | 50 | 355 | 0.0 | 0.0 | 0.00 | 0.03 | 0.00 | 87 | 1011.7 |
| 20260509063823 | 50 | 355 | 0.0 | 0.0 | 0.00 | 0.03 | 0.00 | 87 | 1011.8 |
| 20260509063320 | 50 | 355 | 0.0 | 1.0 | 0.00 | 0.03 | 0.00 | 87 | 1011.7 |
| 20260509062821 | 50 | 355 | 0.0 | 2.0 | 0.00 | 0.03 | 0.00 | 87 | 1011.7 |
| 20260509062317 | 50 | 355 | 0.0 | 2.0 | 0.00 | 0.03 | 0.00 | 87 | 1011.8 |
| 20260509061814 | 50 | 355 | 0.0 | 2.0 | 0.00 | 0.03 | 0.00 | 88 | 1011.8 |
| 20260509061330 | 50 | 355 | 0.0 | 0.0 | 0.00 | 0.03 | 0.00 | 87 | 1012.0 |
| 20260509060826 | 50 | 355 | 0.0 | 0.0 | 0.00 | 0.03 | 0.00 | 87 | 1012.1 |
| 20260509060323 | 51 | 355 | 0.0 | 0.0 | 0.00 | 0.03 | 0.00 | 88 | 1012.1 |
| 20260509055820 | 51 | 355 | 0.0 | 2.0 | 0.00 | 0.04 | 0.00 | 87 | 1012.2 |
| 20260509055317 | 50 | 355 | 1.0 | 2.0 | 0.00 | 0.04 | 0.00 | 87 | 1012.2 |
| 20260509054814 | 51 | 355 | 1.0 | 2.0 | 0.00 | 0.04 | 0.00 | 87 | 1012.5 |
| 20260509054330 | 51 | 355 | 0.0 | 0.0 | 0.00 | 0.04 | 0.00 | 87 | 1012.4 |
| 20260509053826 | 51 | 355 | 0.0 | 0.0 | 0.00 | 0.04 | 0.00 | 86 | 1012.4 |
| 20260509053323 | 51 | 355 | 0.0 | 0.0 | 0.00 | 0.04 | 0.00 | 86 | 1012.4 |
| 20260509052819 | 51 | 355 | 0.0 | 0.0 | 0.00 | 0.04 | 0.00 | 85 | 1012.5 |
| 20260509052315 | 51 | 355 | 0.0 | 1.0 | 0.00 | 0.04 | 0.00 | 85 | 1012.6 |
| 20260509051816 | 51 | 355 | 0.0 | 1.0 | 0.00 | 0.04 | 0.00 | 86 | 1012.8 |
| 20260509051312 | 51 | 355 | 0.0 | 0.0 | 0.00 | 0.04 | 0.00 | 85 | 1012.9 |
| 20260509050829 | 51 | 355 | 0.0 | 0.0 | 0.00 | 0.04 | 0.00 | 85 | 1012.7 |
| 20260509050325 | 51 | 355 | 0.0 | 0.0 | 0.00 | 0.04 | 0.00 | 84 | 1012.7 |
| 20260509045821 | 51 | 355 | 0.0 | 0.0 | 0.00 | 0.04 | 0.00 | 83 | 1012.6 |
| 20260509045317 | 51 | 355 | 0.0 | 0.0 | 0.00 | 0.04 | 0.00 | 82 | 1012.6 |
| 20260509044814 | 51 | 355 | 0.0 | 0.0 | 0.00 | 0.04 | 0.00 | 83 | 1012.7 |
| 20260509044315 | 51 | 355 | 0.0 | 0.0 | 0.00 | 0.04 | 0.00 | 82 | 1012.7 |
| 20260509043831 | 51 | 355 | 0.0 | 0.0 | 0.00 | 0.04 | 0.00 | 82 | 1012.8 |
| 20260509043327 | 51 | 355 | 0.0 | 0.0 | 0.00 | 0.04 | 0.00 | 82 | 1012.8 |
| 20260509042823 | 51 | 355 | 0.0 | 0.0 | 0.00 | 0.04 | 0.00 | 82 | 1012.7 |
| 20260509042319 | 51 | 355 | 0.0 | 1.0 | 0.00 | 0.04 | 0.00 | 82 | 1012.7 |
| 20260509041816 | 51 | 355 | 0.0 | 1.0 | 0.00 | 0.04 | 0.00 | 82 | 1012.7 |
| 20260509041311 | 51 | 355 | 0.0 | 0.0 | 0.00 | 0.04 | 0.00 | 81 | 1012.6 |
| 20260509040811 | 51 | 355 | 0.0 | 0.0 | 0.00 | 0.04 | 0.00 | 81 | 1012.6 |
| 20260509040329 | 51 | 355 | 0.0 | 0.0 | 0.00 | 0.04 | 0.00 | 80 | 1012.8 |
| 20260509035824 | 51 | 355 | 0.0 | 0.0 | 0.00 | 0.04 | 0.04 | 80 | 1012.9 |
| 20260509035320 | 51 | 355 | 0.0 | 0.0 | 0.00 | 0.04 | 0.04 | 80 | 1012.9 |
| 20260509034817 | 51 | 355 | 0.0 | 0.0 | 0.00 | 0.04 | 0.04 | 80 | 1012.9 |
| 20260509034313 | 51 | 355 | 0.0 | 0.0 | 0.00 | 0.04 | 0.04 | 79 | 1012.7 |
| 20260509033830 | 51 | 355 | 0.0 | 0.0 | 0.00 | 0.04 | 0.04 | 79 | 1012.6 |
| 20260509033330 | 52 | 355 | 0.0 | 0.0 | 0.00 | 0.04 | 0.04 | 78 | 1012.6 |
| 20260509032825 | 52 | 355 | 0.0 | 0.0 | 0.00 | 0.04 | 0.04 | 78 | 1012.7 |
| 20260509032323 | 52 | 355 | 0.0 | 0.0 | 0.00 | 0.04 | 0.04 | 78 | 1012.7 |
| 20260509031820 | 52 | 355 | 0.0 | 0.0 | 0.00 | 0.04 | 0.04 | 77 | 1012.7 |
| 20260509031316 | 52 | 355 | 0.0 | 0.0 | 0.00 | 0.04 | 0.04 | 78 | 1012.8 |
| 20260509030812 | 52 | 355 | 0.0 | 0.0 | 0.00 | 0.04 | 0.04 | 78 | 1012.9 |
| 20260509030328 | 52 | 355 | 0.0 | 0.0 | 0.00 | 0.04 | 0.04 | 78 | 1012.9 |
| 20260509025828 | 52 | 355 | 0.0 | 1.0 | 0.00 | 0.04 | 0.04 | 78 | 1012.8 |
| 20260509025325 | 52 | 355 | 0.0 | 1.0 | 0.00 | 0.04 | 0.04 | 78 | 1012.9 |
| 20260509024821 | 52 | 355 | 0.0 | 0.0 | 0.00 | 0.04 | 0.04 | 77 | 1012.9 |
| 20260509024317 | 52 | 355 | 0.0 | 0.0 | 0.00 | 0.04 | 0.04 | 77 | 1012.9 |
| 20260509023813 | 53 | 355 | 0.0 | 0.0 | 0.00 | 0.04 | 0.04 | 77 | 1012.9 |
| 20260509023330 | 53 | 355 | 0.0 | 0.0 | 0.00 | 0.04 | 0.04 | 76 | 1012.8 |
| 20260509022826 | 52 | 355 | 0.0 | 0.0 | 0.00 | 0.04 | 0.04 | 75 | 1012.8 |
| 20260509022326 | 52 | 355 | 0.0 | 0.0 | 0.00 | 0.04 | 0.04 | 75 | 1012.8 |
| 20260509021823 | 52 | 355 | 0.0 | 0.0 | 0.00 | 0.04 | 0.04 | 75 | 1012.7 |
| 20260509021319 | 52 | 355 | 0.0 | 0.0 | 0.00 | 0.04 | 0.04 | 75 | 1012.7 |
| 20260509020815 | 52 | 355 | 0.0 | 0.0 | 0.00 | 0.04 | 0.04 | 74 | 1012.6 |
| 20260509020312 | 52 | 355 | 0.0 | 0.0 | 0.00 | 0.04 | 0.04 | 75 | 1012.6 |
| 20260509015828 | 52 | 355 | 0.0 | 0.0 | 0.00 | 0.04 | 0.04 | 75 | 1012.5 |
| 20260509015325 | 52 | 355 | 0.0 | 0.0 | 0.00 | 0.04 | 0.04 | 75 | 1012.4 |
| 20260509014825 | 52 | 355 | 0.0 | 0.0 | 0.00 | 0.04 | 0.04 | 75 | 1012.3 |
| 20260509014320 | 52 | 355 | 0.0 | 0.0 | 0.00 | 0.04 | 0.04 | 75 | 1012.3 |
| 20260509013816 | 52 | 355 | 0.0 | 0.0 | 0.00 | 0.04 | 0.04 | 75 | 1012.3 |
| 20260509013313 | 52 | 355 | 0.0 | 0.0 | 0.00 | 0.04 | 0.04 | 74 | 1012.2 |
| 20260509012829 | 52 | 355 | 0.0 | 0.0 | 0.00 | 0.04 | 0.04 | 74 | 1012.2 |
| 20260508194330 | 57 | 120 | 1.0 | 6.0 | 0.00 | 0.04 | 0.04 | 64 | 1010.8 |
| 20260508193827 | 57 | 242 | 1.0 | 4.0 | 0.00 | 0.04 | 0.04 | 56 | 1010.8 |
| 20260508193324 | 57 | 46 | 1.0 | 4.0 | 0.00 | 0.04 | 0.04 | 54 | 1010.8 |
| 20260508192824 | 58 | 319 | 0.0 | 10.0 | 0.00 | 0.04 | 0.04 | 57 | 1010.8 |
| 20260508192321 | 58 | 341 | 4.0 | 10.0 | 0.00 | 0.04 | 0.04 | 52 | 1010.7 |
| 20260508191817 | 58 | 346 | 3.0 | 9.0 | 0.00 | 0.04 | 0.04 | 52 | 1010.7 |
| 20260508191314 | 58 | 349 | 5.0 | 11.0 | 0.00 | 0.04 | 0.04 | 52 | 1010.8 |
| 20260508190831 | 58 | 338 | 4.0 | 14.0 | 0.00 | 0.04 | 0.04 | 49 | 1010.8 |
| 20260508190328 | 59 | 226 | 5.0 | 14.0 | 0.00 | 0.04 | 0.04 | 48 | 1010.7 |
| 20260508185824 | 60 | 320 | 2.0 | 10.0 | 0.00 | 0.04 | 0.04 | 47 | 1010.6 |
| 20260508185324 | 61 | 338 | 5.0 | 10.0 | 0.00 | 0.04 | 0.04 | 44 | 1010.6 |
| 20260508184840 | 61 | 333 | 4.0 | 10.0 | 0.00 | 0.04 | 0.04 | 46 | 1010.8 |
| 20260508184318 | 59 | 205 | 3.0 | 14.0 | 0.00 | 0.04 | 0.04 | 47 | 1010.8 |
| 20260508183814 | 59 | 49 | 6.0 | 14.0 | 0.00 | 0.04 | 0.04 | 49 | 1010.8 |
| 20260508183312 | 59 | 259 | 2.0 | 8.0 | 0.00 | 0.04 | 0.04 | 47 | 1010.9 |
| 20260508182828 | 59 | 318 | 2.0 | 9.0 | 0.00 | 0.04 | 0.04 | 47 | 1010.9 |
| 20260508182324 | 59 | 300 | 3.0 | 17.0 | 0.00 | 0.04 | 0.04 | 47 | 1010.8 |
| 20260508181820 | 59 | 304 | 4.0 | 17.0 | 0.00 | 0.04 | 0.04 | 46 | 1010.8 |
| 20260508181321 | 60 | 241 | 5.0 | 14.0 | 0.00 | 0.04 | 0.04 | 44 | 1010.9 |
| 20260508180818 | 61 | 311 | 5.0 | 12.0 | 0.00 | 0.04 | 0.04 | 43 | 1010.8 |
| 20260508180314 | 61 | 226 | 5.0 | 12.0 | 0.00 | 0.04 | 0.04 | 44 | 1010.7 |
| 20260508175812 | 61 | 259 | 2.0 | 11.0 | 0.00 | 0.04 | 0.04 | 45 | 1010.6 |
| 20260508175328 | 60 | 360 | 6.0 | 10.0 | 0.00 | 0.04 | 0.04 | 46 | 1010.8 |
| 20260508174825 | 61 | 20 | 2.0 | 16.0 | 0.00 | 0.04 | 0.04 | 44 | 1010.8 |
| 20260508174342 | 60 | 355 | 5.0 | 16.0 | 0.00 | 0.04 | 0.04 | 46 | 1010.9 |
| 20260508173822 | 60 | 292 | 6.0 | 14.0 | 0.00 | 0.04 | 0.04 | 45 | 1011.0 |
| 20260508173319 | 60 | 344 | 5.0 | 14.0 | 0.00 | 0.04 | 0.04 | 47 | 1011.0 |
| 20260508172816 | 59 | 174 | 4.0 | 13.0 | 0.00 | 0.04 | 0.04 | 48 | 1011.1 |
| 20260508172314 | 59 | 360 | 4.0 | 13.0 | 0.00 | 0.04 | 0.04 | 49 | 1011.1 |
| 20260508171830 | 58 | 355 | 3.0 | 11.0 | 0.00 | 0.04 | 0.04 | 49 | 1011.3 |
| 20260508171327 | 58 | 288 | 4.0 | 9.0 | 0.00 | 0.04 | 0.04 | 49 | 1011.2 |
| 20260508170824 | 58 | 360 | 4.0 | 15.0 | 0.00 | 0.04 | 0.04 | 49 | 1011.3 |
| 20260508170325 | 59 | 342 | 6.0 | 15.0 | 0.00 | 0.04 | 0.04 | 47 | 1011.4 |
| 20260508165821 | 60 | 346 | 7.0 | 15.0 | 0.00 | 0.04 | 0.04 | 45 | 1011.4 |
| 20260508165339 | 60 | 333 | 2.0 | 8.0 | 0.00 | 0.04 | 0.04 | 45 | 1011.2 |
| 20260508164815 | 60 | 210 | 3.0 | 20.0 | 0.00 | 0.04 | 0.04 | 48 | 1011.3 |
| 20260508164333 | 58 | 302 | 8.0 | 20.0 | 0.00 | 0.04 | 0.04 | 51 | 1011.5 |
| 20260508163829 | 59 | 294 | 4.0 | 16.0 | 0.00 | 0.04 | 0.04 | 46 | 1011.5 |
| 20260508163326 | 58 | 9 | 3.0 | 13.0 | 0.00 | 0.04 | 0.04 | 48 | 1011.6 |
| 20260508161314 | 57 | 360 | 5.0 | 11.0 | 0.00 | 0.04 | 0.04 | 50 | 1011.8 |
| 20260508160831 | 57 | 333 | 5.0 | 10.0 | 0.00 | 0.04 | 0.04 | 50 | 1012.0 |
| 20260508160327 | 58 | 218 | 3.0 | 9.0 | 0.00 | 0.04 | 0.04 | 49 | 1012.0 |
| 20260508155824 | 58 | 192 | 2.0 | 14.0 | 0.00 | 0.04 | 0.04 | 48 | 1011.9 |
| 20260508155341 | 57 | 349 | 4.0 | 14.0 | 0.00 | 0.04 | 0.04 | 51 | 1012.0 |
| 20260508154816 | 56 | 298 | 2.0 | 10.0 | 0.00 | 0.04 | 0.04 | 50 | 1011.7 |
| 20260508154312 | 56 | 329 | 4.0 | 10.0 | 0.00 | 0.04 | 0.04 | 49 | 1012.0 |
| 20260508153813 | 55 | 188 | 2.0 | 11.0 | 0.00 | 0.04 | 0.04 | 53 | 1012.2 |
| 20260508153329 | 55 | 307 | 5.0 | 11.0 | 0.00 | 0.04 | 0.04 | 50 | 1012.3 |
| 20260508152825 | 54 | 265 | 2.0 | 11.0 | 0.00 | 0.04 | 0.04 | 51 | 1012.3 |
| 20260508152342 | 55 | 331 | 5.0 | 12.0 | 0.00 | 0.04 | 0.04 | 50 | 1012.3 |
| 20260508151817 | 56 | 313 | 4.0 | 12.0 | 0.00 | 0.04 | 0.04 | 49 | 1012.3 |
| 20260508151314 | 56 | 303 | 2.0 | 6.0 | 0.00 | 0.04 | 0.04 | 49 | 1012.3 |